This site uses a module created by best online poker sites.

BSB police report ending December 15, 2017

Print
"12/14/2017","00:44","217CR0032124","ACCIDENT","ACCIDENT","I90 MM 228 EB","",""
"12/14/2017","00:52","217CR0032125","SUSPICIOUS ACTIVITY","SUSPICIOUS ACTIVITY","2000 DEWEY BLVD DOTTYS CASINO","",""
"12/14/2017","01:15","217CR0032126","DISTURBANCE-NOISE","DISTURBANCE-NOISE","630 W GRANITE","",""
"12/14/2017","01:15","217CR0032127","MEDICAL - EMERGENCY","MEDICAL - EMERGENCY","1308 GRIZZLY TRAIL","",""
"12/14/2017","01:19","217CR0032128","OPEN BUILDING","OPEN BUILDING","1407 HARRISON MT AFFORDABLE 4X","",""
"12/14/2017","01:20","217CR0032129","SUSPICIOUS ACTIVITY","SUSPICIOUS ACTIVITY","1407 HARRISON AVE","",""
"12/14/2017","01:32","217CR0032130","T/S","T/S","MONTANA ST AND ALUMINUM ST","",""
"12/14/2017","01:45","217CR0032131","BURGLARY","BURGLARY","1021 1/2 E FRONT","",""
"12/14/2017","01:58","217CR0032132","DISTURBANCE","DISTURBANCE","1117 W PARK","",""
"12/14/2017","02:02","217CR0032133","DISTURBANCE","DISTURBANCE","531 S MONTANA TOWN PUMP","",""
"12/14/2017","02:10","217CR0032134","DISTURBANCE","POSSESS DRUG PARAPHERNALIA","414 S MONTANA #14","",""
"12/14/2017","02:45","217CR0032135","MEDICAL - EMERGENCY","MEDICAL - EMERGENCY","1932 FLORENCE","",""
"12/14/2017","03:21","217CR0032136","SUSPICIOUS ACTIVITY","SUSPICIOUS ACTIVITY","1736 LONGFELLOW","",""
"12/14/2017","03:53","217CR0032137","DISTURBANCE","DISTURBANCE","220 N WYOMING MOTEL 6","",""
"12/14/2017","05:41","217CR0032138","T/S","DRIVE WHILE SUSP. OR REVOKED","1960 HARRISON AVE TACO JOHNS","",""
"12/14/2017","06:35","217CR0032139","TRAFFIC HAZARD","TRAFFIC HAZARD","115 S PARKMONT","",""
"12/14/2017","06:39","217CR0032140","TRAFFIC","TRAFFIC","1000 GRIZZLY TRAIL","",""
"12/14/2017","06:41","217CR0032141","MEDICAL - EMERGENCY","MEDICAL - EMERGENCY","1000 GRIZZLY TRAIL","",""
"12/14/2017","06:57","217CR0032142","CITIZEN AID","CITIZEN AID","3650 ALBANY","",""
"12/14/2017","07:19","217CR0032143","HARASSMENT","HARASSMENT","207 S EXCELSIOR","",""
"12/14/2017","07:48","217CR0032144","HARASSMENT","HARASSMENT","520 W PARK","",""
"12/14/2017","07:51","217CR0032145","CIVIL PAPER SERVICE","CIVIL PAPER SERVICE","1931 GRAND","",""
"12/14/2017","08:04","217CR0032146","T/S","CRIMINAL CONTEMPT","1700 BLK FLORENCE","ARREST(s) MADE",""
"12/14/2017","08:20","217CR0032147","LED BUSINESS","LED BUSINESS","155 W QUARTZ","",""
"12/14/2017","09:36","217CR0032148","CIVIL PAPER SERVICE","CIVIL PAPER SERVICE","1960 HARRISON AVE","",""
"12/14/2017","09:51","217CR0032149","SUICIDE ATTEMPT/THREAT","SUICIDE ATTEMPT/THREAT","************","",""
"12/14/2017","10:11","217CR0032150","THEFT","THEFT, ALL OTHERS","201 HOBSON #40","ARREST(s) MADE",""
"12/14/2017","10:19","217CR0032151","MEDICAL - EMERGENCY","MEDICAL - EMERGENCY","728 S COLORADO","",""
"12/14/2017","10:27","217CR0032152","ALARM - BURGLARY","ALARM - BURGLARY","************","",""
"12/14/2017","10:31","217CR0032153","LED BUSINESS","LED BUSINESS","BSB GUN RANGE","",""
"12/14/2017","10:41","217CR0032154","WELFARE CHECK","WELFARE CHECK","900 N EXCELSIOR","",""
"12/14/2017","10:41","217CR0032155","ASSIST OTHER AGENCY","CRIMINAL CONTEMPT","1927 HARVARD","ARREST(s) MADE",""
"12/14/2017","10:53","217CR0032156","UNWANTED PERSON","UNWANTED PERSON","************","",""
"12/14/2017","11:51","217CR0032157","DISTURBANCE","DISTURBANCE","628 W GRANITE","",""
"12/14/2017","12:59","217CR0032158","HARASSMENT","HARASSMENT","2031 GAYLORD","",""
"12/14/2017","13:05","217CR0032159","SUSPICIOUS ACTIVITY","SUSPICIOUS ACTIVITY","1304 HARRISON AVE","",""
"12/14/2017","13:27","217CR0032160","DETENTION BUSINESS","DETENTION BUSINESS","************","",""
"12/14/2017","13:31","217CR0032161","DISTURBANCE","DISTURBANCE","1914 MASSACHUSETTS","",""
"12/14/2017","13:41","217CR0032162","ATL","ATL","I 90 MM 211 E BND","",""
"12/14/2017","13:47","217CR0032163","FIRE - OTHER","IMMEDIATE NOTIFICATION OF ACC","HOBSON AND ROWE RD","",""
"12/14/2017","13:51","217CR0032164","SUSPICIOUS ACTIVITY","SUSPICIOUS ACTIVITY","1925 GARLAND","",""
"12/14/2017","13:55","217CR0032165","DETENTION BUSINESS","DETENTION BUSINESS","************","",""
"12/14/2017","13:56","217CR0032166","CITIZEN AID","CRIMINAL CONTEMPT","206 W PARK","ARREST(s) MADE",""
"12/14/2017","13:56","217CR0032167","WELFARE CHECK","WELFARE CHECK","1129 ATLANTIC","",""
"12/14/2017","14:03","217CR0032168","CITIZEN AID","CITIZEN AID","3400 HILL AVE #1105","",""
"12/14/2017","14:15","217CR0032169","ACCIDENT","ACCIDENT","WYNNE AVE AND GILMAN ST","",""
"12/14/2017","14:19","217CR0032170","JUVENILE MISC","JUVENILE MISC","************","",""
"12/14/2017","14:46","217CR0032171","ASSAULT","ASSAULT","************","",""
"12/14/2017","14:46","217CR0032172","CIVIL STANDBY","CIVIL STANDBY","2130 GAYLORD ST","",""
"12/14/2017","14:47","217CR0032173","ALL OTHER","ALL OTHER","3001 HARRISON AVE","",""
"12/14/2017","14:59","217CR0032174","WELFARE CHECK","WELFARE CHECK","715 13TH ST","",""
"12/14/2017","15:06","217CR0032175","FRAUD","FRAUD","2300 HARRISON AVE","",""
"12/14/2017","15:10","217CR0032176","MEDICAL - EMERGENCY","MEDICAL - EMERGENCY","3002 MAMMOTH","",""
"12/14/2017","15:43","217CR0032177","WELFARE CHECK","WELFARE CHECK","105 TRINITY LOOP","",""
"12/14/2017","15:55","217CR0032178","HIT AND RUN","HIT AND RUN, UNATTENDED VEHICL","310 W FRONT","",""
"12/14/2017","16:03","217CR0032179","ATL","ATL","1600 BLK SCHLEY","",""
"12/14/2017","16:08","217CR0032180","UNWANTED PERSON","UNWANTED PERSON","************","",""
"12/14/2017","16:16","217CR0032181","DISTURBANCE","PFMA - MINOR INJ/PHYSICAL CONT","1953 WHITMAN AVE","",""
"12/14/2017","16:18","217CR0032182","DISTURBANCE","ASSAULT WITH WEAPON","1515 OREGON AVE APT 102","",""
"12/14/2017","16:26","217CR0032183","STOLEN VEHICLE","MOTOR VEHICLE THEFT","3801 HARRISON BUTTE CHEVROLET","",""
"12/14/2017","16:38","217CR0032184","ALL OTHER","ALL OTHER","106 W BROADWAY","",""
"12/14/2017","16:52","217CR0032185","THEFT","THEFT, SHOPLIFT","3901 HARRISON AVE","",""
"12/14/2017","17:15","217CR0032186","THEFT","THEFT, SHOPLIFT","3901 HARRISON AVE","",""
"12/14/2017","17:17","217CR0032187","MEDICAL - EMERGENCY","MEDICAL - EMERGENCY","2201 GRAND AVE","",""
"12/14/2017","18:23","217CR0032188","ACCIDENT","ACCIDENT","3900 BLOCK HARRISON AVE","",""
"12/14/2017","18:37","217CR0032189","THEFT","THEFT","1342 SAGE","",""
"12/14/2017","20:11","217CR0032190","SUICIDE ATTEMPT/THREAT","SEXUAL ASSAULT","************","",""
"12/14/2017","20:48","217CR0032191","CITIZEN AID","CITIZEN AID","2825 FARRAGUT #D107","",""
"12/14/2017","21:31","217CR0032192","ALL OTHER","ALL OTHER","WYOMING AND BROADWAY","",""
"12/14/2017","21:35","217CR0032193","DISTURBANCE","DISTURBANCE","410 W MERCURY","",""
"12/14/2017","22:14","217CR0032194","WELFARE CHECK","WELFARE CHECK","400 S CLARK","",""
"12/14/2017","22:37","217CR0032195","AP&P BUSINESS","POSSESSION OF DANGEROUS DRUGS","20 W GALENA GOLD RUSH","ARREST(s) MADE",""
"12/14/2017","22:50","217CR0032196","W/PRISONER","W/PRISONER","","",""
"12/14/2017","23:11","217CR0032197","T/S","T/S @ MAIN AND PORPHYRY","MAIN AND PORPHYRY","",""
"12/14/2017","23:13","217CR0032198","ANIMAL COMPLAINT","ANIMAL COMPLAINT","MONTANA // I15 SB MM 126","",""
"12/15/2017","00:10","217CR0032200","SUSPICIOUS ACTIVITY","SUSPICIOUS ACTIVITY","MT CON","",""
"12/15/2017","00:10","217CR0032199","T/S","T/S @ MT CON RD","MT CON RD","",""
"12/15/2017","00:25","217CR0032201","ANIMAL COMPLAINT","ANIMAL COMPLAINT","189 TRINITY LOOP","",""
"12/15/2017","00:51","217CR0032202","T/S","T/S","MAIN AND ALUMINUM","",""
"12/15/2017","01:02","217CR0032203","SUSPICIOUS ACTIVITY","SUSPICIOUS ACTIVITY","1370 HARRISON","",""
"12/15/2017","01:55","217CR0032204","ASSAULT","ASSAULT","************","",""
"12/15/2017","01:59","217CR0032205","PARKING COMPLAINT","PARKING COMPLAINT","9 W PARK","",""
"12/15/2017","02:33","217CR0032206","SUSPICIOUS ACTIVITY","SUSPICIOUS ACTIVITY","631 S UTAH","",""
"12/15/2017","03:47","217CR0032207","CITIZEN AID","CITIZEN AID","PARK AND MAIN","",""
"12/15/2017","04:18","217CR0032208","UNWANTED PERSON","PROTECTIVE CUSTODY","400 S CLARK","",""
"12/15/2017","04:46","217CR0032209","MEDICAL - EMERGENCY","MEDICAL - EMERGENCY","1726 LOWELL","",""
"12/15/2017","06:49","217CR0032210","STOLEN VEHICLE","MOTOR VEHICLE THEFT","2941 HANSEN RD","",""
"12/15/2017","07:05","217CR0032211","VANDALISM/CRIMINAL MISCHIEF","VANDALISM/CRIMINAL MISCHIEF","225 N ALASKA","",""
"12/15/2017","07:08","217CR0032212","SUSPICIOUS ACTIVITY","SUSPICIOUS ACTIVITY","PARK AND MAIN","",""
"12/15/2017","07:58","217CR0032214","CIVIL PAPER SERVICE","CIVIL PAPER SERVICE","119070 JUNIPER ACREA RD","",""
"12/15/2017","08:02","217CR0032216","CIVIL PAPER SERVICE","CIVIL PAPER SERVICE","664 TRAVONIA","",""
"12/15/2017","08:06","217CR0032217","WELFARE CHECK","WELFARE CHECK","532 EDISON ST","",""
 
Wednesday the 14th. Affiliate Marketing.
Copyright 2012

©